Dewpoint
1 1 1 0 1 1 1 -0 -0 -1 -3 -11 -8 -4 -2 -1 -0 0 2 3 2 5 7 8 8 8 6 3 -2 2 2 2 2 2 3 2 0 0 1 -0 -1 0 -1 -1 -0 -1 -1
0 1 0 0 0 1 1 0 1 0 -1 -3 -9 -8 -4 -1 -1 -1 1 3 3 2 4 7 8 8 8 6 -1 -3 1 3 3 2 1 0 0 0 0 -0 -1 -1 -1 -2 -1 -2 -2
-0 0 -0 -1 -0 -0 0 1 1 0 -0 -2 -3 -9 -7 -3 -1 -1 0 2 3 2 2 3 6 7 7 6 0 -2 -3 -2 2 1 -0 1 1 1 1 1 0 0 1 -0 -1 -1 -1
-1 -0 -0 -1 -1 -1 -0 0 1 1 0 -1 -2 -2 -6 -5 -3 -2 -1 0 1 2 2 1 2 5 6 8 7 2 -0 -1 -3 -2 -1 -0 2 3 2 1 1 1 1 2 -1 -1 -1
-1 -1 -1 -1 -1 -1 -1 -1 0 1 1 1 1 -0 -1 -6 -6 -3 -2 -0 0 1 1 2 1 3 6 7 7 7 2 -1 0 3 4 3 3 4 2 3 3 2 3 3 1 -2 -2
-1 -2 -2 -1 -2 -2 -2 -2 -1 -1 -1 -1 0 0 0 -0 -4 -2 -1 -1 -1 0 1 1 2 2 3 7 7 7 7 2 -1 -1 3 4 5 4 3 4 6 4 4 3 1 -1 -1
-3 -2 -2 -1 -2 -1 -1 -1 -3 -3 -3 -4 -3 -1 -0 0 -0 -4 -0 -1 -1 1 1 0 1 3 5 7 6 7 7 6 4 2 3 5 6 7 4 3 3 1 2 2 1 -1 -0
-3 -3 -3 -3 -2 -2 -1 -2 -3 -3 -3 -3 -2 -2 -2 -1 1 -0 -2 0 -0 1 1 1 2 3 2 4 7 5 5 4 4 4 2 5 7 3 3 3 4 4 4 3 1 -0 1
-4 -4 -4 -3 -3 -3 -2 -3 -3 -4 -3 -4 -3 -2 -2 -2 -0 0 -4 -3 -0 1 1 -0 0 2 2 1 4 6 5 4 4 4 3 2 -0 1 3 4 5 4 5 4 3 1 1
-4 -4 -4 -4 -4 -4 -3 -4 -2 -2 -3 -4 -3 -4 -3 -1 -1 0 -0 -3 -3 1 1 -2 -1 -2 1 2 4 4 6 4 4 5 3 2 -2 1 3 4 4 5 3 3 3 4 4
-4 -4 -5 -4 -4 -4 -4 -4 -2 -2 -2 -3 -3 -2 -2 -2 -0 0 -0 -2 -4 0 1 -5 -2 -2 -1 3 4 5 5 5 6 3 3 6 4 2 3 3 3 3 1 3 4 5 5
-3 -4 -4 -4 -4 -4 -4 -5 -5 -3 -3 -3 -4 -3 -2 -2 -1 -1 -0 -2 -0 2 -1 -4 -2 3 2 2 1 2 5 6 7 6 3 3 1 1 1 1 3 3 3 4 4 5 7
-3 -4 -5 -4 -4 -4 -4 -3 -3 -3 -3 -4 -4 -4 -2 -1 -1 -1 -0 -1 1 0 -6 -5 0 2 3 3 3 1 7 8 8 9 9 6 4 1 1 3 2 4 6 11 11 10 8
-3 -3 -4 -7 -6 -7 -6 -5 -5 -4 -3 -5 -5 -5 -5 -2 -2 -1 0 0 1 -2 -4 -5 -4 -0 4 3 4 3 5 8 7 7 8 9 10 7 3 3 4 5 5 9 9 7 5
-4 -3 -3 -5 -7 -8 -9 -9 -5 -5 -6 -6 -4 -3 -1 -4 -2 -1 -0 0 -1 -4 -5 -6 -7 -3 -1 2 4 5 5 7 6 6 8 9 9 4 3 2 2 5 7 6 8 6 8
-4 -4 -4 -4 -5 -6 -7 -10 -5 -6 -6 -6 -3 -3 -4 -4 -1 -0 -0 -0 -2 -7 -9 -8 -7 -5 -3 -2 2 6 5 5 6 5 5 5 8 4 5 3 2 4 4 9 8 11 10
-3 -4 -5 -5 -5 -5 -5 -8 -7 -7 -6 -6 -4 -2 -6 -3 -1 -0 -1 -2 -3 -5 -7 -7 -7 -8 -6 -7 -8 -3 5 3 4 4 5 5 6 7 6 7 7 6 6 8 8 8 8
-4 -3 -5 -5 -5 -5 -5 -5 -5 -7 -6 -5 -4 -1 -3 -1 0 -0 -1 -3 -4 -5 -6 -6 -6 -6 -7 -8 -8 -6 -3 -1 2 2 2 5 7 8 7 4 5 5 6 7 9 10 8
-4 -4 -4 -4 -5 -5 -8 -5 -5 -7 -6 -3 -3 -2 -4 -1 -0 -0 -1 -1 -4 -4 -5 -6 -5 -6 -7 -7 -6 -7 -7 -10 -10 -1 2 3 7 8 6 5 5 7 5 5 6 6 8
-2 -6 -5 -4 -5 -4 -7 -8 -4 -5 -6 -4 -4 -2 -2 -1 -1 -1 -1 -0 0 -3 -4 -4 -5 -6 -6 -3 -5 -5 -6 -8 -6 -6 -0 2 4 6 7 5 5 6 7 5 5 8 7
-6 -7 -5 -7 -6 -4 -6 -7 -5 -5 -5 -3 -5 -3 -2 -1 -2 -1 -1 -2 -2 -2 -3 -4 -2 -3 -4 -2 -3 -3 -4 -5 -6 -6 -0 2 3 3 2 2 1 2 4 6 7 6 8
-4 -7 -4 -13 -5 -4 -6 -5 -6 -5 -5 -3 -4 -4 -3 -2 -2 -1 -1 -0 -0 -0 -0 -1 -1 -4 -3 -2 -3 -4 -4 -3 -5 -5 -4 0 0 -1 1 -2 -4 1 -0 2 3 6 6
-5 -6 -4 -11 -5 -5 -6 -6 -8 -5 -6 -4 -5 -4 -3 -4 -2 -1 -2 -3 -2 -4 -2 -3 -3 -3 -2 -3 -5 -6 -7 -6 -4 -4 -3 -0 -1 -1 0 -4 -0 1 1 -1 4 5 7
-7 -4 -3 -7 -5 -6 -6 -7 -8 -6 -7 -5 -5 -4 -3 -4 -4 -3 -5 -4 -3 -3 -2 -4 -4 -2 -4 -4 -6 -6 -6 -6 -5 -4 -4 -2 -1 -0 0 -2 -0 -6 -6 -0 3 3 2
-7 -4 -4 -5 -5 -4 -7 -6 -6 -7 -8 -5 -7 -3 -3 -3 -4 -5 -5 -3 -4 -4 -3 -3 -3 -3 -4 -4 -0 -0 -1 -2 -3 -4 -4 -3 -1 -0 0 -1 -3 -6 -8 -7 -3 0 -2
-4 -6 -5 -6 -7 -5 -7 -7 -7 -6 -6 -5 -7 -5 -3 -3 -4 -4 -4 -5 -3 -3 -2 -3 -4 -4 -3 0 0 -0 -1 -2 -3 -3 -5 -5 -3 -1 -1 -1 -1 -7 -11 -10 -10 -4 -8
-4 -6 -8 -6 -5 -6 -8 -7 -6 -4 -5 -5 -5 -4 -3 -3 -4 -2 -2 -3 -4 -2 -1 -1 -1 -0 -0 0 0 -0 -1 -5 -3 -3 -1 -2 -1 -1 -0 -0 -3 -7 -10 -11 -3 -3 -7
-5 -6 -7 -8 -7 -8 -6 -7 -5 -5 -5 -4 -5 -4 -3 -3 -3 -2 -3 -1 -1 -1 -0 0 0 -0 0 1 0 -0 -0 -2 -3 -6 -4 -2 -1 -1 -0 0 -0 -8 -9 -6 -7 -9 -9
-5 -6 -7 -7 -6 -5 -6 -6 -5 -6 -4 -4 -4 -3 -4 -2 -2 -2 -2 -3 -3 -1 -0 -1 0 -1 -1 0 -0 -1 -1 -2 -3 -2 -6 -2 -3 -2 -2 -2 -4 -8 -6 -8 -10 -8 1
Wind_Speed
18 18 20 20 21 19 19 20 21 22 20 20 25 24 24 23 21 21 20 21 23 19 15 19 19 20 17 15 23 3 12 12 8 8 12 18 20 11 8 7 8 6 4 11 14 13 10
18 20 19 20 20 19 20 20 20 21 22 21 20 22 22 21 20 21 21 20 20 23 21 15 17 15 23 17 27 28 16 19 13 8 7 13 12 13 7 6 9 6 7 7 7 9 10
19 19 18 20 20 21 19 21 20 18 19 21 21 19 21 21 19 19 19 20 17 19 23 24 14 10 23 42 12 19 30 31 25 20 13 11 11 8 9 4 9 3 8 6 10 8 8
19 20 20 19 20 21 19 18 19 19 18 19 20 20 19 20 20 20 19 20 20 15 19 26 29 16 14 19 35 32 14 22 30 26 21 16 14 10 7 4 2 5 3 9 2 11 7
19 20 21 21 21 20 20 19 19 17 17 18 20 21 20 19 20 19 20 20 20 16 13 17 22 17 10 14 33 29 35 30 14 10 15 10 17 9 7 8 7 6 9 10 7 11 6
21 21 21 20 19 20 20 19 19 20 18 18 17 17 19 19 18 17 18 20 20 17 15 11 19 9 22 6 12 25 35 28 20 19 8 11 9 8 8 13 16 11 7 10 13 7 6
17 20 20 20 19 19 19 19 20 19 19 19 18 17 17 17 17 16 17 17 10 9 22 18 10 9 17 13 12 19 28 31 21 16 15 9 8 23 25 19 16 10 17 18 6 7 3
20 19 21 20 20 18 19 18 20 19 18 18 17 15 16 15 15 14 13 9 9 6 10 21 25 24 37 23 10 16 17 18 18 21 16 9 23 19 10 17 17 19 22 23 7 5 5
19 19 18 20 19 19 19 20 20 18 18 18 17 15 14 14 14 14 13 16 13 14 7 10 27 30 33 27 27 7 25 17 18 21 25 26 33 16 17 15 20 23 25 18 16 7 14
19 19 19 18 18 19 21 20 19 19 17 15 16 16 14 15 10 8 13 11 14 10 5 5 13 16 28 25 13 35 22 12 10 23 20 19 26 19 22 24 20 22 14 15 15 8 13
22 19 18 19 18 20 19 18 20 20 19 16 17 16 15 12 9 9 8 8 8 8 5 2 7 7 22 32 14 21 38 28 14 12 12 16 14 24 18 24 20 15 13 14 14 16 15
20 21 20 19 18 19 19 19 19 20 19 18 18 17 16 15 13 12 12 6 6 4 8 4 4 10 11 27 32 13 33 22 8 10 15 16 16 16 27 14 17 9 2 6 2 7 13
20 19 20 20 21 19 19 20 20 20 20 19 19 19 19 16 12 7 4 10 3 4 5 5 5 7 18 16 23 22 21 20 12 8 10 15 20 13 6 15 19 21 14 3 6 6 15
21 20 19 20 21 21 21 20 21 20 21 19 20 21 22 20 17 14 10 4 7 11 14 2 4 5 8 14 15 22 17 20 23 14 6 10 7 23 19 26 15 25 20 7 10 10 8
22 21 20 20 20 21 23 21 20 21 22 20 23 22 19 16 14 17 11 4 9 6 1 4 2 3 4 8 7 19 25 17 19 23 14 6 8 10 14 14 19 10 17 20 5 1 4
24 22 22 20 21 21 20 21 21 21 21 20 25 25 27 15 13 21 7 21 5 3 3 4 7 5 2 4 6 4 9 5 11 20 20 11 9 10 18 18 20 18 17 8 7 7 8
23 22 22 23 21 21 20 20 21 21 19 21 21 9 13 12 17 19 14 11 3 16 3 3 3 4 4 7 9 5 5 7 13 15 22 20 13 3 14 17 20 13 12 5 8 7 10
23 22 22 21 21 21 21 20 20 21 17 17 9 4 7 5 6 3 14 6 9 4 3 8 5 11 12 10 10 8 11 5 10 14 10 11 7 10 18 9 20 24 23 18 7 11 10
20 21 23 22 21 21 23 21 18 20 13 16 8 14 20 17 6 10 8 8 14 5 2 2 6 7 5 10 8 9 14 14 12 6 4 8 4 12 17 15 20 24 25 24 24 2 23
23 24 25 22 21 19 19 21 20 18 11 13 6 3 6 16 13 9 10 9 8 14 17 10 9 9 10 2 7 9 15 10 6 10 19 8 5 5 10 3 7 24 20 29 28 16 25
24 23 25 22 18 20 18 20 18 14 12 10 5 5 5 4 5 10 15 10 14 10 12 15 8 19 14 9 14 21 22 23 19 14 3 6 5 7 9 14 20 17 13 16 30 30 23
24 24 23 20 19 18 18 16 17 14 14 13 5 5 6 12 12 13 11 13 14 11 7 10 18 14 16 23 27 9 18 13 16 2 3 4 10 12 18 19 17 24 22 19 24 24 30
25 24 22 21 21 18 19 20 18 17 13 8 11 16 13 15 5 7 5 11 14 16 19 22 18 14 22 34 18 29 25 14 14 8 5 4 7 5 19 9 5 12 17 15 10 14 24
24 26 23 22 23 19 19 19 16 18 17 18 21 20 11 11 9 9 14 17 17 19 22 23 22 21 40 25 20 19 25 21 16 14 11 11 11 8 15 6 14 13 11 9 11 17 15
25 26 23 23 23 20 19 19 19 20 19 20 24 23 10 8 9 16 19 17 18 26 23 24 34 47 45 27 10 5 3 4 14 19 17 16 12 7 7 11 17 21 14 15 11 20 12
24 26 27 25 24 22 23 21 21 22 21 20 27 25 22 8 16 24 17 18 16 17 20 26 42 44 35 7 6 10 10 6 5 4 21 23 19 12 9 10 10 17 11 19 21 23 29
25 24 25 24 24 24 23 22 24 22 22 22 30 27 28 18 40 27 10 14 20 13 11 15 10 7 28 8 7 9 10 10 9 8 5 10 13 19 18 15 10 21 15 14 15 18 17
24 23 23 24 27 28 26 25 24 25 26 25 34 30 32 31 43 30 29 24 16 17 10 6 4 2 5 7 7 6 7 9 8 12 12 11 12 9 13 12 16 18 11 15 19 44 28
23 22 22 24 24 25 26 26 26 27 27 25 35 35 34 38 23 11 30 44 38 34 30 12 4 5 4 4 4 3 3 5 12 9 10 12 10 7 12 9 15 17 12 24 35 29 13
Wind_Direction
342 337 336 336 342 342 333 321 311 308 311 303 294 295 296 294 296 296 309 307 297 271 261 228 233 252 244 229 233 216 194 181 137 133 184 185 175 166 179 195 174 220 200 225 235 246 238
342 339 335 332 328 335 336 330 316 302 303 310 305 299 294 295 289 287 285 298 302 290 270 252 213 208 230 239 247 233 223 214 219 221 193 196 205 201 178 201 198 202 207 231 232 223 235
343 342 333 326 324 323 329 337 332 312 304 303 308 308 297 288 294 288 279 273 287 297 284 266 246 217 224 237 229 226 224 228 236 241 232 204 203 189 172 158 218 233 264 265 228 213 232
342 342 339 337 329 324 324 326 334 330 313 304 302 306 304 292 285 288 283 279 273 282 291 279 268 276 251 250 247 240 216 222 236 245 242 234 224 212 194 214 161 198 212 247 226 212 227
341 340 337 339 338 331 328 323 319 323 327 319 305 300 302 297 288 282 282 279 278 273 277 281 289 274 268 247 240 235 235 231 221 233 228 203 214 206 176 206 222 200 226 221 270 201 133
338 338 337 332 332 332 329 326 320 314 316 303 319 323 292 296 292 287 279 278 279 279 264 266 268 296 264 241 232 245 232 228 228 223 208 188 189 208 206 194 219 205 210 225 232 199 220
332 330 330 332 329 331 327 326 325 319 322 320 312 321 314 301 290 290 287 289 285 260 226 208 202 229 246 345 245 230 216 214 210 202 199 187 198 218 211 215 235 238 224 233 233 226 250
336 333 330 331 331 327 326 321 319 324 319 319 318 317 307 308 295 281 272 271 261 283 286 236 220 232 243 262 287 243 207 180 186 205 184 189 228 219 206 197 218 231 241 240 244 256 259
321 325 324 332 326 325 325 322 318 321 316 318 312 318 313 311 305 262 270 260 281 284 269 249 219 223 225 241 255 254 193 189 197 196 193 201 230 207 195 196 210 225 232 239 249 248 255
327 325 325 324 322 322 326 322 322 322 318 313 311 314 308 307 305 286 266 296 255 288 283 254 214 239 206 209 254 243 222 205 198 203 195 220 227 197 206 220 202 233 216 233 239 231 253
329 329 325 323 321 321 323 322 322 322 321 306 310 315 309 294 282 277 280 271 228 238 292 229 223 227 199 172 160 219 228 228 214 178 160 218 208 207 212 216 194 246 245 220 219 232 265
319 328 330 326 322 320 321 320 319 317 316 316 306 309 308 297 276 269 284 173 198 243 245 290 248 194 154 200 197 203 194 215 239 225 203 213 201 195 222 214 194 195 124 138 220 222 247
308 315 326 326 329 327 325 322 320 319 317 312 311 306 299 286 266 280 287 160 206 204 305 253 250 225 199 194 213 210 186 190 190 203 185 222 222 205 185 204 207 201 192 183 208 210 245
315 305 311 319 320 323 323 321 322 321 319 314 308 304 297 278 269 243 237 211 228 210 221 260 339 307 235 204 212 207 207 212 207 216 210 202 200 211 211 217 200 206 198 191 208 218 264
296 308 305 310 314 319 321 320 321 320 322 316 311 309 301 291 251 220 195 226 226 196 241 263 311 319 316 263 253 202 218 219 210 203 208 211 222 194 196 194 188 177 209 202 222 334 295
295 292 300 307 308 312 319 320 318 317 321 318 318 311 296 291 236 201 214 234 221 176 357 16 224 204 273 323 245 220 211 207 225 222 219 229 273 224 196 204 208 201 171 189 207 192 231
298 289 293 297 303 307 309 316 316 319 317 321 320 299 311 279 207 189 223 222 247 238 284 258 307 279 270 263 294 312 313 296 193 225 221 229 235 227 185 199 187 205 207 174 177 208 232
296 299 291 294 296 302 306 307 315 318 319 327 315 277 298 256 219 238 235 226 262 277 239 245 273 259 268 291 288 298 275 221 33 50 342 250 216 230 229 210 213 202 201 186 189 195 233
301 301 300 295 291 299 302 302 306 312 318 322 292 283 279 239 237 241 244 235 234 223 152 202 242 224 219 254 271 245 267 269 292 164 251 355 277 227 241 244 238 211 210 205 219 223 213
297 307 300 292 291 290 303 295 302 307 310 315 288 286 262 230 229 251 265 240 239 226 233 217 238 247 256 318 250 276 272 286 277 252 192 169 229 299 257 313 335 223 228 221 214 215 234
301 295 296 297 282 292 301 302 293 301 302 306 248 251 263 303 280 256 253 263 243 243 218 208 237 233 240 247 241 238 247 257 269 266 180 163 257 309 314 328 332 315 312 270 223 218 220
296 295 296 299 288 291 300 289 301 294 293 290 247 261 282 278 285 271 277 251 244 232 205 227 236 245 219 230 222 251 241 254 256 6 337 189 265 277 283 287 286 293 290 290 289 259 224
293 291 295 295 292 293 293 290 296 282 285 272 261 267 274 279 286 269 249 253 256 251 253 245 250 246 238 239 239 244 249 257 243 253 238 204 269 256 265 277 306 283 269 248 269 293 241
288 294 290 291 293 288 292 291 278 278 276 269 269 278 252 266 265 266 284 274 265 254 258 261 251 237 250 266 264 248 229 241 245 243 228 237 230 240 268 299 260 248 231 260 249 269 283
288 294 294 290 295 288 291 290 287 285 279 270 275 271 261 268 259 266 266 268 272 264 264 261 258 252 262 259 237 203 188 241 240 236 219 211 218 243 245 239 275 273 249 247 247 274 272
292 286 288 293 292 292 292 289 290 284 281 275 275 272 262 271 259 256 263 258 261 265 273 262 262 262 259 223 183 197 209 177 212 246 218 214 219 217 226 247 251 271 255 224 248 261 265
291 297 295 286 292 291 291 286 288 283 288 284 280 274 269 267 265 250 242 257 250 249 263 280 272 239 222 181 186 198 213 196 209 201 152 190 203 214 221 239 255 258 261 232 226 252 253
295 296 298 291 290 293 289 285 288 291 296 286 282 277 260 269 261 255 251 237 253 270 256 288 239 216 190 189 188 172 215 206 222 216 197 172 172 205 223 227 242 236 230 219 225 243 258
289 295 302 296 295 295 292 284 287 294 291 289 286 287 275 262 254 263 256 249 247 257 267 252 256 210 177 179 190 160 176 182 212 230 203 210 205 191 192 214 237 239 199 213 230 259 261
Height
1495 1492 1490 1488 1485 1482 1480 1477 1475 1473 1472 1471 1470 1469 1468 1467 1466 1465 1460 1460 1460 1460 1461 1462 1466 1470 1471 1471 1461 1466 1467 1467 1468 1468 1472 1473 1474 1476 1479 1481 1482 1483 1481 1483 1479 1479 1482
1493 1490 1488 1485 1483 1480 1478 1474 1471 1470 1468 1467 1466 1464 1464 1464 1462 1460 1459 1457 1457 1456 1456 1458 1459 1462 1463 1461 1455 1462 1464 1465 1465 1467 1469 1472 1471 1472 1474 1477 1477 1475 1476 1478 1478 1475 1476
1491 1488 1486 1483 1481 1478 1475 1472 1469 1466 1465 1463 1462 1460 1460 1459 1457 1457 1455 1455 1455 1452 1452 1454 1453 1453 1450 1434 1450 1453 1456 1459 1461 1463 1465 1468 1471 1471 1470 1473 1473 1474 1474 1474 1472 1471 1471
1489 1486 1483 1480 1478 1475 1473 1471 1467 1464 1461 1460 1458 1457 1456 1455 1454 1454 1452 1451 1450 1448 1446 1448 1450 1449 1438 1435 1444 1449 1452 1453 1457 1459 1461 1465 1468 1469 1470 1471 1470 1471 1474 1473 1462 1464 1464
1486 1483 1481 1478 1476 1473 1471 1468 1466 1462 1460 1457 1455 1454 1452 1452 1450 1449 1448 1446 1447 1445 1441 1442 1448 1447 1437 1432 1435 1441 1447 1448 1453 1455 1457 1461 1463 1465 1468 1468 1472 1469 1468 1472 1463 1459 1459
1484 1481 1479 1476 1474 1472 1469 1467 1463 1460 1457 1455 1453 1450 1448 1448 1447 1446 1445 1444 1442 1441 1440 1440 1440 1449 1434 1428 1430 1432 1439 1444 1447 1452 1456 1456 1459 1458 1460 1460 1454 1461 1470 1466 1458 1455 1458
1482 1480 1477 1474 1472 1469 1467 1464 1461 1458 1455 1452 1449 1447 1445 1444 1444 1443 1443 1442 1441 1437 1432 1426 1429 1429 1422 1424 1428 1426 1429 1434 1441 1445 1445 1449 1451 1437 1440 1450 1451 1451 1452 1455 1457 1456 1458
1480 1477 1474 1472 1470 1467 1464 1461 1458 1455 1452 1450 1447 1445 1443 1441 1440 1440 1440 1440 1438 1436 1428 1421 1422 1422 1422 1422 1426 1423 1426 1429 1433 1432 1439 1446 1432 1425 1440 1448 1451 1451 1449 1447 1459 1456 1457
1477 1474 1471 1469 1467 1464 1461 1458 1455 1452 1450 1447 1445 1443 1440 1437 1436 1435 1436 1437 1437 1434 1428 1414 1411 1409 1413 1421 1424 1417 1422 1419 1419 1424 1421 1421 1395 1429 1434 1440 1444 1441 1441 1450 1455 1454 1451
1474 1471 1469 1466 1464 1461 1458 1455 1453 1450 1447 1445 1443 1440 1438 1436 1435 1433 1433 1434 1435 1436 1428 1404 1403 1395 1403 1412 1416 1415 1418 1417 1415 1412 1416 1417 1411 1417 1425 1426 1432 1436 1438 1447 1452 1457 1452
1471 1468 1465 1463 1460 1458 1455 1453 1450 1448 1445 1442 1440 1438 1436 1434 1432 1432 1433 1432 1433 1436 1432 1395 1393 1388 1383 1391 1399 1403 1409 1414 1406 1403 1412 1408 1409 1413 1416 1408 1426 1424 1432 1440 1445 1447 1448
1468 1465 1462 1460 1457 1454 1452 1449 1447 1444 1442 1439 1436 1435 1433 1431 1430 1430 1430 1430 1434 1433 1425 1394 1387 1382 1385 1386 1385 1393 1398 1406 1402 1399 1400 1395 1400 1404 1402 1412 1418 1425 1432 1437 1441 1443 1446
1464 1461 1459 1456 1454 1451 1449 1446 1443 1441 1438 1436 1433 1431 1429 1428 1427 1428 1429 1431 1433 1426 1401 1388 1380 1377 1376 1377 1384 1387 1385 1391 1392 1398 1397 1400 1399 1398 1401 1410 1415 1423 1434 1448 1455 1454 1419
1460 1457 1455 1453 1451 1448 1445 1443 1440 1438 1435 1432 1429 1426 1424 1423 1424 1426 1427 1427 1415 1402 1393 1383 1382 1377 1375 1373 1376 1381 1379 1379 1384 1387 1388 1391 1399 1395 1390 1392 1402 1412 1417 1427 1433 1426 1414
1455 1453 1451 1449 1446 1444 1442 1439 1436 1434 1431 1428 1424 1420 1417 1416 1418 1421 1425 1419 1396 1391 1390 1386 1386 1383 1378 1373 1376 1372 1375 1376 1376 1381 1387 1387 1386 1379 1380 1386 1394 1406 1416 1416 1428 1429 1430
1450 1448 1446 1444 1442 1440 1438 1435 1433 1430 1427 1424 1420 1416 1409 1408 1412 1416 1417 1395 1393 1391 1389 1388 1385 1384 1384 1377 1374 1374 1372 1371 1375 1377 1376 1376 1384 1371 1378 1383 1385 1385 1400 1422 1426 1422 1419
1445 1442 1440 1438 1437 1435 1433 1431 1429 1426 1423 1421 1417 1413 1404 1404 1407 1407 1397 1392 1389 1389 1392 1394 1392 1386 1383 1381 1379 1380 1380 1368 1369 1373 1377 1378 1384 1378 1372 1372 1376 1390 1393 1400 1405 1408 1391
1439 1437 1435 1433 1432 1430 1428 1426 1425 1422 1420 1418 1416 1412 1404 1404 1403 1396 1389 1393 1392 1390 1390 1393 1393 1390 1388 1387 1386 1384 1379 1382 1380 1391 1391 1374 1369 1375 1372 1367 1366 1366 1369 1385 1388 1389 1391
1434 1432 1430 1428 1426 1425 1424 1422 1420 1419 1418 1416 1413 1407 1402 1401 1394 1390 1389 1389 1390 1391 1392 1393 1391 1389 1389 1391 1393 1385 1380 1374 1379 1384 1393 1392 1368 1365 1370 1372 1366 1356 1357 1363 1367 1373 1371
1427 1426 1424 1422 1421 1419 1418 1417 1416 1414 1414 1414 1413 1404 1397 1393 1386 1387 1386 1382 1383 1383 1385 1387 1386 1389 1391 1395 1393 1387 1381 1372 1374 1376 1378 1388 1385 1375 1359 1368 1379 1359 1353 1351 1353 1370 1350
1422 1420 1418 1416 1414 1413 1413 1411 1411 1410 1410 1411 1409 1402 1395 1388 1386 1384 1385 1375 1375 1379 1380 1380 1378 1386 1391 1394 1391 1381 1374 1371 1373 1377 1380 1383 1381 1383 1385 1384 1383 1384 1379 1363 1348 1345 1352
1416 1413 1412 1410 1409 1407 1407 1405 1405 1406 1405 1405 1404 1400 1394 1388 1384 1382 1376 1368 1371 1374 1375 1370 1373 1379 1382 1377 1363 1368 1377 1377 1374 1373 1374 1379 1375 1372 1371 1372 1377 1379 1369 1372 1368 1351 1345
1409 1407 1405 1404 1402 1401 1400 1400 1399 1400 1400 1398 1396 1395 1394 1383 1378 1375 1369 1365 1365 1367 1363 1364 1370 1373 1363 1336 1371 1367 1372 1371 1369 1371 1374 1377 1374 1376 1374 1370 1374 1376 1356 1355 1356 1355 1337
1402 1400 1398 1397 1396 1395 1393 1392 1392 1392 1393 1392 1390 1390 1387 1374 1375 1370 1365 1365 1363 1360 1357 1358 1362 1360 1332 1361 1361 1362 1364 1364 1366 1367 1369 1372 1374 1373 1363 1368 1374 1346 1346 1349 1352 1350 1350
1396 1394 1392 1390 1389 1387 1387 1385 1385 1384 1385 1384 1382 1384 1377 1367 1367 1361 1359 1359 1358 1352 1348 1346 1344 1338 1343 1352 1357 1358 1361 1366 1354 1355 1358 1361 1365 1367 1367 1359 1345 1338 1341 1343 1340 1330 1339
1388 1386 1385 1383 1382 1381 1379 1378 1377 1376 1376 1375 1373 1375 1370 1362 1349 1353 1351 1351 1350 1344 1337 1330 1331 1330 1335 1337 1339 1339 1338 1344 1350 1347 1340 1349 1354 1364 1361 1354 1342 1315 1322 1331 1335 1326 1319
1380 1379 1377 1376 1375 1373 1372 1371 1369 1367 1367 1367 1362 1366 1363 1353 1339 1345 1341 1339 1341 1337 1329 1323 1319 1317 1318 1320 1323 1323 1324 1321 1327 1332 1340 1346 1352 1352 1348 1348 1328 1310 1317 1322 1329 1315 1305
1374 1372 1370 1369 1367 1365 1364 1362 1360 1359 1358 1358 1351 1353 1351 1343 1329 1332 1329 1330 1327 1328 1321 1318 1316 1310 1310 1309 1312 1312 1313 1315 1315 1308 1314 1327 1336 1336 1336 1338 1331 1299 1310 1318 1305 1288 1292
1366 1365 1363 1362 1360 1357 1355 1353 1352 1351 1349 1348 1340 1339 1337 1330 1317 1316 1314 1317 1320 1319 1318 1312 1307 1304 1301 1302 1305 1306 1309 1312 1301 1303 1304 1306 1300 1307 1314 1308 1297 1283 1289 1290 1292 1288 1292